Terug naar catalogus

COSMOS 1285 DEB

LostHEO
NORAD 28561·DEBRIS·🇷🇺 Russia

Gelanceerd Aug 4, 1981 vanaf Plesetsk Cosmodrome

Loading…

Volgende Passages (komende 24 uur)

TLE

VerouderdSource: Space-Track

Epoch: Apr 11, 2011, 20:56 UTC

1 28561U 81071V   11101.87240564  .00000669  00000-0  10000-3 0  9994
2 28561  68.1054  56.8763 6143652 144.1951 279.4093  1.97830214 57130

Volg COSMOS 1285 DEB in realtime met AllMySat

Download on the App Store